Location: Arrodets-la-Barthe
(43.0306°N, 0.2829°E)
Time: 19:53:46
(UTC+00:00)

Cosmos 1953 - Pass Details

Date: 24 October 2021
Orbit: 537 x 557 km, 82.5° (Epoch: 02 December)

Event Time Altitude Azimuth Distance (km) Brightness Sun altitude
Rises 17:27:44 0° 187° (S) 2,724 6.1 -5.4°
Reaches altitude 10° 17:29:53 10° 188° (S) 1,836 5.2 -5.8°
Maximum altitude 17:33:57 88° 280° (W) 564 2.4 -6.5°
Drops below altitude 10° 17:38:02 10° 8° (N) 1,852 4.8 -7.3°
Sets 17:40:13 0° 8° (N) 2,751 5.7 -7.7°
